Tracking 22124 objects as of 23-Jan-2021
HD Live streaming from Space Station
objects crossing your sky now

CZ-2F R/B

Track CZ-2F R/B now!
10-day predictions


NORAD ID: 46390
Int'l Code: 2020-063B
Perigee: 315.2 km
Apogee: 327.4 km
Inclination: 50.2 °
Period: 90.8 minutes
Semi major axis: 6692 km
RCS: Unknown
Launch date: September 4, 2020
Source: People's Republic of China (PRC)
Launch site: Jiuquan Satellite Launch Center, China (JSC)

Note: This is a ROCKET BODY
aabbcc
Your satellite tracking list
Your tracking list is empty




NASA's NSSDC Master Catalog

Two Line Element Set (TLE):
1 46390U 20063B   21022.86393310  .00030896  00000-0  12603-3 0  9994
2 46390  50.2030  34.2365 0009134 191.6621 168.4153 15.85757366 22241
Source of the keplerian elements: AFSPC